Tracking 35331 objects as of 17-Sep-2026
HD Live streaming from Space Station
objects crossing your sky now

FALCON 9 R/B

Track FALCON 9 R/B now!
FALCON 9 R/B is classified as:


NORAD ID: 54260
Int'l Code: 2022-157B
Launch date: November 23, 2022
Source: United States (US)
Launch site: AIR FORCE EASTERN TEST RANGE (AFETR)
Your satellite tracking list
Your tracking list is empty




NASA's NSSDC Master Catalog

Two Line Element Set (TLE):
1 54260U 22157B   26253.48534256  .00001919  00000-0  16998-2 0  9994
2 54260  21.7294 317.3103 7744187  56.2531 354.5181  1.71698204 20841
Source of the keplerian elements: AFSPC